Regional Weather Roundup
Issued by NWS

Home | Current Version | Previous Version | Graphics & Text | Print | Product List | Glossary On
Versions: 1 2 3 4 5 6 7 8 9 10 11 12 13 14 15 16 17 18 19 20 21 22 23 24 25 26 27 28 29 30 31 32 33 34 35 36 37 38 39 40 41 42 43 44 45 46 47 48 49 50
000
ASUS43 KIND 181359
RWRIN

WEATHER ROUNDUP FOR INDIANA
NATIONAL WEATHER SERVICE INDIANAPOLIS IN
1000 AM EDT SAT APR 18 2015

NOTE: "FAIR" INDICATES FEW OR NO CLOUDS BELOW 12,000 FEET WITH NO
SIGNIFICANT WEATHER AND/OR OBSTRUCTIONS TO VISIBILITY.

* - STATION DOES NOT REPORT WEATHER SUCH AS PRECIPITATION OR FOG.

+ - STATION NOT QUALITY CONTROLLED BY THE NATIONAL WEATHER SERVICE.
    USE DATA WITH CAUTION...ESPECIALLY DEWPOINT AND RELATIVE
    HUMIDITY OBSERVATIONS.

INZ001>003-010>013-019-020-181500-
NORTHWEST INDIANA

CITY           SKY/WX    TMP DP  RH WIND       PRES   REMARKS
GARY /AIRPORT/ PTSUNNY   66  43  42 N7        30.06R
RENSSELAER +   CLOUDY    64  52  63 CALM      30.05S

$$

LMZ046-743>745-181500-
SOUTHERN LAKE MICHIGAN

STATION/POSITION TIME  TEMP WIND        PRES
                       AIR  DIR/SP/G
                 (UTC) (F)  (DEG/KT/KT) (MB)
BURNS HARBOR     1300   55  340/  4/  6 1017.9S
MICHIGAN CITY    1300   59  250/  3/  3   N/A
4NW MICH CITY    1300   52                N/A

$$

INZ004-005-014>016-021>024-181500-
NORTH CENTRAL INDIANA

CITY           SKY/WX    TMP DP  RH WIND       PRES   REMARKS
ELKHART        SUNNY     66  45  45 CALM      30.04F
GOSHEN         SUNNY     66  51  58 W6        30.04F
SOUTH BEND     SUNNY     67  48  50 NW6       30.04

$$

INZ006>009-017-018-025>027-181500-
NORTHEAST INDIANA

CITY           SKY/WX    TMP DP  RH WIND       PRES   REMARKS
ANGOLA *+      MOSUNNY   70  48  46 NW9       30.04F
FORT WAYNE     MOSUNNY   69  48  47 W6        30.06S

$$

INZ028-029-035-036-043>045-051>053-181500-
WEST CENTRAL INDIANA

CITY           SKY/WX    TMP DP  RH WIND       PRES   REMARKS
CRAWFORDSVL +  MOSUNNY   65  42  43 CALM      30.05F
GREENCASTLE +  PTSUNNY   63  45  51 CALM      30.05F
LAFAYETTE      MOSUNNY   63  50  62 CALM      30.05S
TERRE HAUTE    CLOUDY    64  52  64 CALM      30.04F

$$

INZ030>032-037>040-046>048-054>057-064-065-181500-
CENTRAL INDIANA

CITY           SKY/WX    TMP DP  RH WIND       PRES   REMARKS
ANDERSON       SUNNY     66  43  42 CALM      30.07S
INDIANAPOLIS   PTSUNNY   66  46  48 SE3       30.04F
-EAGLE CREEK   MOSUNNY   65  46  50 S3        30.05F
KOKOMO *+      MOSUNNY   68  50  52 SW5       30.06S
MT COMFORT *+  SUNNY     68  32  26 S3        30.06F
SHELBYVILLE    FAIR      68  46  45 S3        30.05F

$$

INZ033-034-041-042-049-050-058-059-181500-
EAST CENTRAL INDIANA

CITY           SKY/WX    TMP DP  RH WIND       PRES   REMARKS
MUNCIE         SUNNY     69  44  40 CALM      30.07R

$$

INZ060-061-067>069-081>083-085>088-181500-
SOUTHWEST INDIANA

CITY           SKY/WX    TMP DP  RH WIND       PRES   REMARKS
EVANSVILLE     CLOUDY    64  57  78 NE5       30.02F HAZE
HUNTINGBURG *+ CLOUDY    63  55  77 SE5       30.03F

$$

INZ062-063-066-070>080-084-089>092-181500-
SOUTH CENTRAL AND SOUTHEAST INDIANA

CITY           SKY/WX    TMP DP  RH WIND       PRES   REMARKS
BLOOMINGTON    CLOUDY    65  50  58 SE5       30.04F
MADISON *+     PTSUNNY   68  43  40 E5        30.07S

$$



USA.gov is the U.S. government's official web portal to all federal, state and local government web resources and services.